Location: Mascot Post Office (historical)
(40.2645°N, 99.5462°W)
Time: 17:09:43
(UTC+00:00)

COSMOS 2455 - Pass Details

Date: 14 July 2020
Orbit: 898 x 911 km, 67.1° (Epoch: 05 August)

Event Time Altitude Azimuth Distance (km) Brightness Sun altitude
Rises 05:06:40 0° 331° (NNW) 3,549 7.4 -24.1°
Reaches altitude 10° 05:09:11 10° 333° (NNW) 2,605 6.3 -24.3°
Maximum altitude 05:15:15 82° 62° (ENE) 923 2.8 -24.8°
Enters shadow 05:16:26 60° 138° (SE) 1,039 2.8 -24.8°
